Weather History for Birmingham, AL

Change the Weather History Date:

Sunday, February 3, 2013

  Actual Average Record
Temperature  
Mean Temperature 45 °F 45 °F  
Max Temperature 59 °F 56 °F 80 °F (1990)
Min Temperature 31 °F 35 °F 7 °F (1951)
Degree Days  
Heating Degree Days 20 20  
Month to date heating degree days 73 60  
Since 1 July heating degree days 1555 1765  
Moisture  
Dew Point 32 °F    
Average Humidity 65    
Maximum Humidity 100    
Minimum Humidity 30    
Precipitation  
Precipitation 0.00 in 0.16 in 3.84 in (1936)
Month to date precipitation 0.06 0.49  
Year to date precipitation 8.44 5.33  
Snow  
Snow 0.00 in 0.00 in - ()
Month to date snowfall 0.0 0.0  
Since 1 July snowfall 2.1 0.7  
Snow Depth 0.00 in    
Sea Level Pressure  
Sea Level Pressure 30.17 in    
Wind  
Wind Speed 7 mph (WNW)    
Max Wind Speed 22 mph    
Max Gust Speed 26 mph    
Visibility 6 miles    
Events Fog    
T = Trace of Precipitation, MM = Missing Value Source: NWS Daily Summary

Daily Weather History Graph

Daily Weather History Graph

Search for Another Location

Airport:

Trip Planner

Search our weather history database for the weather conditions in past years. The results will help you decide how hot, cold, wet, or windy it might be!

Date:

Astronomy

Feb. 03, 2013 Rise Set
Actual Time 6:41 AM CST 5:20 PM CST
Civil Twilight 6:15 AM CST 5:46 PM CST
Nautical Twilight 5:45 AM CST 6:16 PM CST
Astronomical Twilight 5:16 AM CST 6:45 PM CST
Moon 12:07 AM CST (2/3) 10:59 AM CST (2/3)
Length of Visible Light 11h 30m
Length of Day
10h 38m
Waning Gibbous, 48% of the Moon is Illuminated
Feb 3
Waning Gibbous
Feb 10
New
Feb 17
First Quarter
Feb 25
Full
Mar 4
Last Quarter

Hourly Weather History & Observations

Time (CST) Temp. Windchill Dew Point Humidity Pressure Visibility Wind Dir Wind Speed Gust Speed Precip Events Conditions
12:03 AM 37.4 °F 33.8 °F 37.4 °F 100% 30.22 in 2.5 mi WNW 4.6 mph - N/A   Overcast
12:24 AM 37.4 °F 33.8 °F 37.4 °F 100% 30.22 in 1.2 mi NW 4.6 mph - N/A   Overcast
12:42 AM 37.4 °F - 37.4 °F 100% 30.21 in 0.8 mi Calm Calm - N/A   Overcast
12:53 AM 37.9 °F - 37.0 °F 97% 30.21 in 0.5 mi Calm Calm - N/A Fog Fog
1:53 AM 37.0 °F - 37.0 °F 100% 30.21 in 0.2 mi Calm Calm - N/A Fog Fog
2:53 AM 36.0 °F - 36.0 °F 100% 30.19 in 0.2 mi Calm Calm - N/A Fog Fog
3:08 AM 35.6 °F - 35.6 °F 100% 30.18 in 0.2 mi Calm Calm - N/A Fog Fog
3:53 AM 35.1 °F - 35.1 °F 100% 30.18 in 0.2 mi Calm Calm - N/A Fog Fog
4:53 AM 33.1 °F - 32.0 °F 96% 30.18 in 0.2 mi Calm Calm - N/A Fog Fog
5:29 AM 33.8 °F - 33.8 °F 100% 30.18 in 0.8 mi Calm Calm - N/A   Mist
5:36 AM 32.0 °F - 32.0 °F 100% 30.18 in 2.5 mi Calm Calm - N/A   Mostly Cloudy
5:43 AM 32.0 °F - 32.0 °F 100% 30.18 in 6.0 mi Calm Calm - N/A   Scattered Clouds
5:53 AM 32.0 °F - 32.0 °F 100% 30.19 in 6.0 mi Calm Calm - N/A   Partly Cloudy
6:20 AM 32.0 °F - 30.2 °F 93% 30.17 in 1.5 mi Calm Calm - N/A   Partly Cloudy
6:32 AM 32.0 °F - 32.0 °F 100% 30.18 in 3.0 mi Calm Calm - N/A   Partly Cloudy
6:53 AM 32.0 °F - 30.9 °F 96% 30.18 in 3.0 mi Calm Calm - N/A   Clear
7:53 AM 37.9 °F 33.5 °F 36.0 °F 93% 30.18 in 10.0 mi WSW 5.8 mph - N/A   Clear
8:53 AM 44.1 °F 39.0 °F 37.0 °F 76% 30.19 in 10.0 mi WSW 9.2 mph - N/A   Clear
9:53 AM 48.9 °F - 35.1 °F 59% 30.19 in 10.0 mi WNW 16.1 mph 25.3 mph N/A   Clear
10:53 AM 51.1 °F - 33.1 °F 50% 30.17 in 10.0 mi WNW 13.8 mph - N/A   Clear
11:53 AM 54.0 °F - 30.0 °F 40% 30.14 in 10.0 mi WNW 17.3 mph 25.3 mph N/A   Clear
12:53 PM 55.9 °F - 27.0 °F 33% 30.12 in 10.0 mi WNW 18.4 mph 26.5 mph N/A   Clear
1:53 PM 57.0 °F - 28.0 °F 33% 30.10 in 10.0 mi West 12.7 mph 23.0 mph N/A   Clear
2:53 PM 57.9 °F - 27.0 °F 31% 30.10 in 10.0 mi West 17.3 mph 24.2 mph N/A   Clear
3:53 PM 57.0 °F - 27.0 °F 32% 30.11 in 10.0 mi West 13.8 mph - N/A   Clear
4:53 PM 55.0 °F - 25.0 °F 31% 30.11 in 10.0 mi NW 12.7 mph - N/A   Clear
5:53 PM 52.0 °F - 26.1 °F 37% 30.12 in 10.0 mi NW 8.1 mph - N/A   Clear
6:53 PM 50.0 °F - 26.1 °F 39% 30.14 in 10.0 mi NW 4.6 mph - N/A   Clear
7:53 PM 48.0 °F - 26.1 °F 42% 30.15 in 10.0 mi NW 5.8 mph - N/A   Clear
8:53 PM 43.0 °F 40.3 °F 27.0 °F 53% 30.16 in 10.0 mi North 4.6 mph - N/A   Clear
9:53 PM 39.0 °F - 28.0 °F 65% 30.17 in 10.0 mi Calm Calm - N/A   Clear
10:53 PM 39.0 °F - 28.0 °F 65% 30.17 in 10.0 mi Calm Calm - N/A   Clear
11:53 PM 37.9 °F - 28.9 °F 70% 30.15 in 10.0 mi Calm Calm - N/A   Clear